Location: Unspecified
(35.7250°N, 0.0000°E)
Time: 10:10:51
(UTC+00:00)

Vanguard 1 - Pass Details

Date: 03 July 2019
Orbit: 653 x 3830 km, 34.3° (Epoch: 20 July)

Event Time Altitude Azimuth Distance (km) Brightness Sun altitude
Rises 19:36:04 0° 188° (S) 6,670 14.1 -3.7°
Reaches altitude 10° 19:41:49 10° 175° (S) 6,111 13.7 -4.7°
Maximum altitude 19:55:59 23° 131° (SE) 5,741 13.3 -7.0°
Drops below altitude 10° 20:11:32 10° 89° (E) 6,855 13.9 -9.6°
Sets 20:18:21 0° 77° (ENE) 7,659 14.2 -10.7°
